When you browse on this site, cookies collect data to enhance your experience and personalize the content and advertising you see.
Visit our Privacy Policy to learn more. By continuing to use the site, you agree to this use of cookies and data.
EN

Hourly Weather La Paz

Today, 9 August, Sunday

Time Temperature Precipitation Wind Pressure Humidity
00:00 +23°C° 0 mm 1 mps 700 mmHg 95%
01:00 +23°C° 0 mm 1 mps 699 mmHg 95%
02:00 +22°C° 0 mm 1 mps 699 mmHg 96%
03:00 +22°C° 0 mm 1 mps 698 mmHg 96%
04:00 +22°C° 0 mm 1 mps 699 mmHg 97%
05:00 +22°C° 0 mm 1 mps 699 mmHg 97%
06:00 +22°C° 0 mm 1 mps 699 mmHg 96%
07:00 +24°C° 0 mm 2 mps 700 mmHg 88%
08:00 +26°C° 0 mm 2 mps 700 mmHg 79%
09:00 +28°C° 0 mm 2 mps 701 mmHg 71%
10:00 +29°C° 0 mm 2 mps 700 mmHg 66%
11:00 +30°C° 0 mm 2 mps 700 mmHg 62%
12:00 +31°C° 0 mm 2 mps 700 mmHg 57%
13:00 +31°C° 0.6 mm 2 mps 699 mmHg 63%
14:00 +30°C° 0.6 mm 2 mps 698 mmHg 69%
15:00 +30°C° 0.6 mm 2 mps 698 mmHg 74%
16:00 +28°C° 0.6 mm 2 mps 698 mmHg 79%
17:00 +27°C° 0.6 mm 2 mps 698 mmHg 83%
18:00 +26°C° 0.6 mm 2 mps 698 mmHg 88%
19:00 +25°C° 0 mm 2 mps 699 mmHg 89%
20:00 +24°C° 0 mm 2 mps 699 mmHg 90%
21:00 +24°C° 0 mm 2 mps 699 mmHg 91%
22:00 +24°C° 0 mm 2 mps 699 mmHg 92%
23:00 +23°C° 0 mm 1 mps 699 mmHg 93%

Tomorrow, 10 August, Monday

Time Temperature Precipitation Wind Pressure Humidity
00:00 +23°C° 0 mm 1 mps 699 mmHg 94%
01:00 +23°C° 0 mm 1 mps 699 mmHg 94%
02:00 +23°C° 0 mm 2 mps 698 mmHg 95%
03:00 +23°C° 0 mm 2 mps 698 mmHg 95%
04:00 +23°C° 0 mm 2 mps 698 mmHg 96%
05:00 +23°C° 0 mm 2 mps 698 mmHg 96%
06:00 +23°C° 0 mm 2 mps 698 mmHg 96%
07:00 +24°C° 0 mm 2 mps 698 mmHg 90%
08:00 +26°C° 0 mm 2 mps 699 mmHg 84%
09:00 +27°C° 0 mm 3 mps 699 mmHg 78%
10:00 +27°C° 0.8 mm 3 mps 699 mmHg 79%
11:00 +28°C° 0.8 mm 3 mps 699 mmHg 81%
12:00 +28°C° 0.8 mm 3 mps 699 mmHg 82%
13:00 +27°C° 1.3 mm 3 mps 698 mmHg 84%
14:00 +27°C° 1.3 mm 3 mps 698 mmHg 87%
15:00 +26°C° 1.3 mm 3 mps 697 mmHg 89%
16:00 +25°C° 0.3 mm 2 mps 697 mmHg 91%
17:00 +24°C° 0.3 mm 2 mps 697 mmHg 92%
18:00 +23°C° 0.3 mm 2 mps 697 mmHg 94%
19:00 +23°C° 0 mm 2 mps 697 mmHg 94%
20:00 +23°C° 0 mm 2 mps 698 mmHg 94%
21:00 +23°C° 0 mm 2 mps 698 mmHg 94%
22:00 +23°C° 0 mm 2 mps 698 mmHg 94%
23:00 +23°C° 0 mm 2 mps 698 mmHg 94%

Day after tomorrow, 11 August, Tuesday

Time Temperature Precipitation Wind Pressure Humidity
00:00 +23°C° 0 mm 2 mps 698 mmHg 94%
01:00 +23°C° 0 mm 2 mps 698 mmHg 94%
02:00 +23°C° 0 mm 2 mps 697 mmHg 94%
03:00 +23°C° 0 mm 2 mps 697 mmHg 94%
04:00 +23°C° 0 mm 2 mps 697 mmHg 95%
05:00 +23°C° 0 mm 2 mps 697 mmHg 95%
06:00 +23°C° 0 mm 2 mps 697 mmHg 95%
07:00 +23°C° 0 mm 2 mps 697 mmHg 93%
08:00 +24°C° 0 mm 2 mps 698 mmHg 91%
09:00 +24°C° 0 mm 2 mps 698 mmHg 90%
10:00 +26°C° 0 mm 2 mps 698 mmHg 79%
11:00 +28°C° 0 mm 2 mps 699 mmHg 68%
12:00 +30°C° 0 mm 3 mps 699 mmHg 57%
13:00 +30°C° 0 mm 3 mps 698 mmHg 54%
14:00 +31°C° 0 mm 3 mps 698 mmHg 51%
15:00 +31°C° 0 mm 3 mps 697 mmHg 48%
16:00 +30°C° 0.1 mm 2 mps 697 mmHg 58%
17:00 +28°C° 0.1 mm 2 mps 697 mmHg 67%
18:00 +26°C° 0.1 mm 1 mps 697 mmHg 77%
19:00 +25°C° 0 mm 1 mps 697 mmHg 81%
20:00 +24°C° 0 mm 1 mps 698 mmHg 85%
21:00 +23°C° 0 mm 1 mps 698 mmHg 90%
22:00 +22°C° 0 mm 1 mps 698 mmHg 91%
23:00 +22°C° 0 mm 1 mps 698 mmHg 92%

12 August, Wednesday

Time Temperature Precipitation Wind Pressure Humidity
00:00 +22°C° 0 mm 1 mps 698 mmHg 93%
01:00 +21°C° 0 mm 1 mps 697 mmHg 94%
02:00 +21°C° 0 mm 1 mps 697 mmHg 95%
03:00 +21°C° 0 mm 1 mps 696 mmHg 96%
04:00 +21°C° 0 mm 1 mps 697 mmHg 97%
05:00 +20°C° 0 mm 2 mps 697 mmHg 97%
06:00 +20°C° 0 mm 2 mps 697 mmHg 97%
07:00 +23°C° 0 mm 2 mps 698 mmHg 91%
08:00 +24°C° 0 mm 2 mps 698 mmHg 85%
09:00 +26°C° 0 mm 2 mps 699 mmHg 79%
10:00 +28°C° 0 mm 2 mps 699 mmHg 70%
11:00 +29°C° 0 mm 3 mps 699 mmHg 60%
12:00 +31°C° 0 mm 3 mps 699 mmHg 50%
13:00 +31°C° 0 mm 3 mps 698 mmHg 51%
14:00 +31°C° 0 mm 3 mps 697 mmHg 52%
15:00 +31°C° 0 mm 3 mps 696 mmHg 53%
16:00 +30°C° 0.1 mm 3 mps 696 mmHg 62%
17:00 +28°C° 0.1 mm 2 mps 696 mmHg 72%
18:00 +26°C° 0.1 mm 1 mps 697 mmHg 82%
19:00 +25°C° 0.1 mm 1 mps 697 mmHg 85%
20:00 +24°C° 0.1 mm 1 mps 697 mmHg 89%
21:00 +23°C° 0.1 mm 1 mps 698 mmHg 93%
22:00 +23°C° 0 mm 1 mps 698 mmHg 94%
23:00 +23°C° 0 mm 1 mps 698 mmHg 94%

13 August, Thursday

Time Temperature Precipitation Wind Pressure Humidity
00:00 +22°C° 0 mm 1 mps 698 mmHg 95%
01:00 +22°C° 0 mm 1 mps 697 mmHg 96%
02:00 +22°C° 0 mm 1 mps 697 mmHg 96%
03:00 +20°C° 0 mm 2 mps 697 mmHg 97%
04:00 +20°C° 0 mm 2 mps 697 mmHg 97%
05:00 +20°C° 0 mm 2 mps 697 mmHg 98%
06:00 +20°C° 0 mm 2 mps 697 mmHg 98%
07:00 +23°C° 0 mm 2 mps 698 mmHg 93%
08:00 +24°C° 0 mm 2 mps 698 mmHg 89%
09:00 +25°C° 0 mm 2 mps 698 mmHg 84%
10:00 +27°C° 0 mm 2 mps 698 mmHg 72%
11:00 +29°C° 0 mm 3 mps 698 mmHg 59%
12:00 +31°C° 0 mm 3 mps 698 mmHg 47%
13:00 +31°C° 0 mm 3 mps 698 mmHg 48%
14:00 +31°C° 0 mm 3 mps 697 mmHg 49%
15:00 +31°C° 0 mm 3 mps 696 mmHg 50%
16:00 +29°C° 0.1 mm 3 mps 696 mmHg 60%
17:00 +27°C° 0.1 mm 2 mps 697 mmHg 69%
18:00 +26°C° 0.1 mm 2 mps 697 mmHg 79%
19:00 +25°C° 0 mm 1 mps 697 mmHg 82%
20:00 +24°C° 0 mm 1 mps 698 mmHg 84%
21:00 +24°C° 0 mm 1 mps 698 mmHg 87%
22:00 +23°C° 0 mm 1 mps 698 mmHg 90%
23:00 +22°C° 0 mm 1 mps 697 mmHg 92%

14 August, Friday

Time Temperature Precipitation Wind Pressure Humidity
00:00 +21°C° 0 mm 2 mps 697 mmHg 95%
01:00 +20°C° 0 mm 2 mps 696 mmHg 96%
02:00 +20°C° 0 mm 2 mps 696 mmHg 96%
03:00 +20°C° 0 mm 2 mps 696 mmHg 97%
04:00 +20°C° 0 mm 2 mps 696 mmHg 96%
05:00 +21°C° 0 mm 2 mps 696 mmHg 95%
06:00 +21°C° 0 mm 2 mps 697 mmHg 94%
07:00 +24°C° 0 mm 2 mps 697 mmHg 85%
08:00 +25°C° 0 mm 3 mps 698 mmHg 76%
09:00 +27°C° 0 mm 3 mps 698 mmHg 67%
10:00 +28°C° 0 mm 3 mps 698 mmHg 64%
11:00 +29°C° 0 mm 3 mps 698 mmHg 60%
12:00 +30°C° 0 mm 3 mps 697 mmHg 56%
13:00 +30°C° 0.3 mm 3 mps 697 mmHg 61%
14:00 +29°C° 0.3 mm 3 mps 696 mmHg 66%
15:00 +29°C° 0.3 mm 3 mps 696 mmHg 70%
16:00 +27°C° 0.9 mm 3 mps 696 mmHg 78%
17:00 +26°C° 0.9 mm 2 mps 696 mmHg 85%
18:00 +24°C° 0.9 mm 2 mps 696 mmHg 92%
19:00 +24°C° 0 mm 2 mps 696 mmHg 93%
20:00 +23°C° 0 mm 2 mps 697 mmHg 94%
21:00 +23°C° 0 mm 2 mps 697 mmHg 95%
22:00 +23°C° 0 mm 2 mps 697 mmHg 96%
23:00 +23°C° 0 mm 2 mps 697 mmHg 97%
Show more